WS Maaseik 1 Meer informatie WS Maaseik 1


WS Maaseik 2 Meer informatie WS Maaseik 2


Regen radar Meer informatie rain snow radar


Bezoek onze andere website:

Vorige versie
weerstation Maaseik


Bezoek ook eens deze sites:

Weerstation Geleen



Het weer levert geen direct gevaar op.    Er zijn geen waarschuwingen afgegeven.

15 daagse weersverwachting Neuchâtel (CH)

  • Overzicht
  • Per uur
  • 15 dagen
  • Extra
  • Vergelijk
  • Kaarten
  • Dagkaart
  • Meer »
  • Info
  • Statistieken
  • Directe link
    Temp 6h Neerslag Wind  
 06:19     20:58    Daglengte: 14:39 Vandaag
14:00
17°
3.4 mm
4
20:00
17°
 
3
 06:20     20:57    Daglengte: 14:37 Morgen
02:00
15°
 
2
08:00
15°
 
6
14:00
19°
 
5
20:00
18°
 
3
 06:21     20:55    Daglengte: 14:34 Zaterdag 07 Aug
02:00
15°
 
1
08:00
15°
 
1
14:00
17°
20.5 mm
1
20:00
15°
56.9 mm
2
 06:23     20:54    Daglengte: 14:31 Zondag 08 Aug
02:00
14°
53.5 mm
3
08:00
14°
 
3
Locatie info
Region: Neuchâtel
Latitude: 46.9903°N
Longitude: 6.9311°E
441 masl
Postcode: 2000
Temp/Neerslag /Baro Onweer/Dauwpunt
    Temp Baro 1h Neerslag Dauwpunt Wind UV Bewolking  
 06:19     20:58    Daglengte: 14:39 Vandaag
13:00
16°
1012.1 hPa 3.4 mm
49%
13.8°
4
Windvlaag: 3.8 m/s
72%
14:00
17°
1011.9 hPa
73%
13.9°
4
Windvlaag: 5.7 m/s
38%
15:00
18°
1011.7 hPa
20%
14.3°
5
Windvlaag: 5.5 m/s
16%
16:00
17°
1011.4 hPa
15%
14.9°
5
Windvlaag: 6.7 m/s
11%
17:00
18°
1011.1 hPa
14%
15.5°
5
Windvlaag: 5.5 m/s
12%
18:00
17°
1011.1 hPa
14%
14.4°
5
Windvlaag: 2.5 m/s
18%
19:00
17°
1011.0 hPa
14%
13.6°
4
Windvlaag: 2.1 m/s
8%
20:00
17°
1011.0 hPa
14%
12.9°
3
Windvlaag: 1.5 m/s
3%
21:00
16°
1011.1 hPa
15%
12.4°
3
Windvlaag: 1.3 m/s
2%
22:00
15°
1011.5 hPa
14%
12.4°
3
Windvlaag: 0.8 m/s
23%
23:00
15°
1011.7 hPa
14%
12.2°
2
Windvlaag: 1.3 m/s
23%
 06:20     20:57    Daglengte: 14:37 Morgen
00:00
15°
1011.2 hPa
72%
11.9°
2
Windvlaag: 1.2 m/s
85%
01:00
15°
1010.6 hPa
82%
12.0°
2
Windvlaag: 1.1 m/s
77%
02:00
15°
1010.0 hPa
34%
12.7°
2
Windvlaag: 1.9 m/s
82%
03:00
15°
1009.4 hPa
72%
12.5°
2
Windvlaag: 2 m/s
79%
04:00
15°
1009.2 hPa
34%
13.1°
2
Windvlaag: 3.4 m/s
57%
05:00
15°
1009.1 hPa
21%
13.3°
3
Windvlaag: 4.9 m/s
39%
06:00
15°
1009.4 hPa
51%
13.1°
4
Windvlaag: 4 m/s
34%
07:00
15°
1010.2 hPa
57%
13.0°
5
Windvlaag: 2.2 m/s
15%
08:00
15°
1010.7 hPa
14%
12.5°
6
Windvlaag: 1.9 m/s
19%
09:00
16°
1010.9 hPa
16%
12.8°
6
Windvlaag: 2.5 m/s
9%
10:00
17°
1011.0 hPa
14%
13.4°
6
Windvlaag: 3.1 m/s
8%
11:00
18°
1011.2 hPa
14%
12.9°
6
Windvlaag: 3.7 m/s
8%
12:00
18°
1011.2 hPa
14%
13.6°
5
Windvlaag: 4.1 m/s
9%
13:00
18°
1011.2 hPa
14%
15.0°
5
Windvlaag: 5 m/s
21%
14:00
19°
1011.1 hPa
14%
14.4°
5
Windvlaag: 5 m/s
16%
15:00
19°
1010.8 hPa
14%
13.6°
5
Windvlaag: 4.5 m/s
62%
16:00
20°
1010.4 hPa
14%
12.7°
5
Windvlaag: 3.6 m/s
66%
17:00
20°
1010.2 hPa
14%
12.2°
4
Windvlaag: 2 m/s
45%
18:00
19°
1010.1 hPa
14%
12.0°
4
Windvlaag: -0.8 m/s
32%
19:00
19°
1010.0 hPa
14%
11.8°
3
Windvlaag: -2.2 m/s
29%
20:00
18°
1010.1 hPa
14%
12.0°
3
Windvlaag: -2.4 m/s
30%
21:00
17°
1010.3 hPa
19%
12.7°
3
Windvlaag: -3.1 m/s
31%
22:00
16°
1010.5 hPa
14%
12.9°
3
Windvlaag: -3 m/s
40%
23:00
16°
1010.6 hPa
14%
12.8°
2
Windvlaag: -2 m/s
43%
 06:21     20:55    Daglengte: 14:34 Zaterdag 07 Aug
00:00
16°
1010.6 hPa
14%
12.6°
1
Windvlaag: -1.2 m/s
34%
01:00
15°
1010.5 hPa
14%
12.9°
2
Windvlaag: -0.7 m/s
61%
02:00
15°
1010.2 hPa
14%
13.0°
1
Windvlaag: -0.9 m/s
68%
03:00
15°
1009.8 hPa
19%
12.8°
1
Windvlaag: -0.8 m/s
76%
04:00
14°
1009.5 hPa
19%
12.4°
1
Windvlaag: -0.9 m/s
39%
05:00
14°
1008.6 hPa
21%
9.9°
1
Windvlaag: -0.8 m/s
66%
06:00
14°
1008.4 hPa
21%
9.7°
1
Windvlaag: -0.7 m/s
69%
07:00
14°
1008.2 hPa
21%
9.4°
1
Windvlaag: -0.6 m/s
68%
08:00
15°
1007.9 hPa
22%
10.4°
1
Windvlaag: -0.5 m/s
78%
09:00
16°
1007.8 hPa
100%
11.1°
1
Windvlaag: 0.2 m/s
71%
10:00
16°
1007.5 hPa 5.5 mm
100%
11.0°
1
Windvlaag: 2.7 m/s
67%
11:00
17°
1007.5 hPa 5.8 mm
100%
10.2°
2
Windvlaag: 3.3 m/s
81%
12:00
17°
1007.4 hPa 2.9 mm
100%
9.4°
1
Windvlaag: 2.6 m/s
94%
13:00
17°
1007.4 hPa 2.9 mm
100%
13.9°
1
Windvlaag: 3 m/s
98%
14:00
17°
1007.0 hPa 3.4 mm
100%
14.1°
1
Windvlaag: 2.9 m/s
99%
15:00
16°
1006.5 hPa 3.5 mm
100%
13.1°
1
Windvlaag: 2.6 m/s
92%
16:00
16°
1006.2 hPa 4.6 mm
91%
14.9°
1
Windvlaag: 3.3 m/s
100%
17:00
16°
1006.7 hPa 7.2 mm
100%
15.6°
2
Windvlaag: 0.7 m/s
100%
18:00
15°
1007.5 hPa 13.9 mm
100%
14.7°
2
Windvlaag: -3.1 m/s
100%
19:00
15°
1007.2 hPa 15.3 mm
100%
14.6°
1
Windvlaag: -1.4 m/s
100%
20:00
15°
1009.5 hPa 12.5 mm
100%
13.9°
2
Windvlaag: 7.1 m/s
100%
21:00
14°
1010.5 hPa 11.5 mm
100%
13.5°
3
Windvlaag: 8.6 m/s
97%
22:00
14°
1010.9 hPa 10.0 mm
100%
12.6°
3
Windvlaag: 7.4 m/s
99%
23:00
14°
1011.4 hPa 9.2 mm
100%
12.0°
4
Windvlaag: 6.2 m/s
96%
 06:23     20:54    Daglengte: 14:31 Zondag 08 Aug
00:00
14°
1011.7 hPa 8.8 mm
93%
11.9°
4
Windvlaag: 4.4 m/s
88%
01:00
14°
1011.7 hPa 14.0 mm
25%
11.9°
3
Windvlaag: 4.3 m/s
62%
02:00
14°
1011.4 hPa
21%
12.0°
3
Windvlaag: 3.6 m/s
69%
03:00
14°
1011.9 hPa
22%
12.1°
3
Windvlaag: 9.5 m/s
14%
04:00
14°
1012.0 hPa
21%
12.1°
3
Windvlaag: 9.7 m/s
13%
05:00
13°
1012.1 hPa
24%
11.9°
3
Windvlaag: 9.4 m/s
15%
06:00
13°
1012.6 hPa
24%
12.1°
3
Windvlaag: 7.5 m/s
17%
07:00
13°
1013.4 hPa
24%
12.0°
3
Windvlaag: 8 m/s
19%
08:00
14°
1013.9 hPa
23%
11.8°
3
Windvlaag: 7.6 m/s
19%
09:00
14°
1015.0 hPa   -36.9°
4
Windvlaag: 0 m/s
0%
Temp/Neerslag /Baro Onweer/Dauwpunt
    Temp Baro Neerslag Dauwpunt Wind Bewolking  
 06:19     20:58    Daglengte: 14:39 Vandaag
14:00
17°
1011.9 hPa 3.4 mm 13.9°
4
38%
17:00
18°
1011.1 hPa   15.5°
5
12%
20:00
17°
1011.0 hPa   12.9°
3
3%
23:00
15°
1011.7 hPa   12.2°
2
23%
 06:20     20:57    Daglengte: 14:37 Morgen
02:00
15°
1010.0 hPa   12.7°
2
82%
05:00
15°
1009.1 hPa   13.3°
3
39%
08:00
15°
1010.7 hPa   12.5°
6
19%
11:00
18°
1011.2 hPa   12.9°
6
8%
14:00
19°
1011.1 hPa   14.4°
5
16%
17:00
20°
1010.2 hPa   12.2°
4
45%
20:00
18°
1010.1 hPa   12.0°
3
30%
23:00
16°
1010.6 hPa   12.8°
2
43%
 06:21     20:55    Daglengte: 14:34 Zaterdag 07 Aug
02:00
15°
1010.2 hPa   13.0°
1
68%
05:00
14°
1008.6 hPa   9.9°
1
66%
08:00
15°
1007.9 hPa   10.4°
1
78%
11:00
17°
1007.5 hPa 11.3 mm 10.2°
2
81%
14:00
17°
1007.0 hPa 9.2 mm 14.1°
1
99%
17:00
16°
1006.7 hPa 15.2 mm 15.6°
2
100%
20:00
15°
1009.5 hPa 41.7 mm 13.9°
2
100%
23:00
14°
1011.4 hPa 30.7 mm 12.0°
4
96%
 06:23     20:54    Daglengte: 14:31 Zondag 08 Aug
02:00
14°
1011.4 hPa 22.8 mm 12.0°
3
69%
05:00
13°
1012.1 hPa   11.9°
3
15%
08:00
14°
1013.9 hPa   11.8°
3
19%
11:00
16°
1015.3 hPa   9.7°
5
0%
14:00
18°
1015.6 hPa   10.1°
6
0%
17:00
20°
1017.2 hPa 41.4 mm 10.5°
5
0%
20:00
17°
1018.9 hPa 41.5 mm 11.6°
2
0%
23:00
13°
1021.4 hPa 41.5 mm 10.4°
1
0%
 06:24     20:52    Daglengte: 14:28 Maandag 09 Aug
02:00
12°
1021.8 hPa 41.5 mm 9.1°
1
0%
05:00
12°
1021.4 hPa 41.5 mm 9.2°
1
1%
08:00
14°
1021.8 hPa 41.5 mm 10.4°
0
1%
11:00
19°
1022.2 hPa 41.5 mm 11.3°
1
1%
14:00
21°
1022.2 hPa 41.5 mm 10.7°
1
1%
17:00
22°
1021.9 hPa 41.5 mm 10.8°
1
0%
20:00
18°
1023.1 hPa 41.5 mm 12.7°
2
0%
23:00
14°
1024.9 hPa 41.5 mm 11.4°
2
0%
 06:25     20:51    Daglengte: 14:26 Dinsdag 10 Aug
02:00
13°
1025.4 hPa 41.5 mm 10.3°
1
0%
05:00
12°
1024.9 hPa 41.5 mm 9.7°
1
0%
08:00
14°
1025.2 hPa 41.5 mm 11.0°
1
0%
11:00
20°
1024.0 hPa 41.5 mm 13.2°
1
0%
14:00
23°
1022.4 hPa 41.5 mm 13.9°
2
0%
17:00
23°
1021.4 hPa 41.5 mm 14.4°
1
0%
20:00
20°
1021.3 hPa 41.5 mm 15.3°
1
1%
23:00
16°
1022.6 hPa 41.5 mm 13.5°
2
0%
 06:26     20:49    Daglengte: 14:23 Woensdag 11 Aug
02:00
15°
1022.5 hPa 41.5 mm 12.3°
1
0%
05:00
14°
1022.3 hPa 41.5 mm 11.9°
0
0%
08:00
16°
1022.5 hPa 41.5 mm 13.4°
0
0%
11:00
21°
1022.0 hPa 41.5 mm 15.5°
1
0%
14:00
25°
1021.6 hPa 41.5 mm 15.6°
2
0%
17:00
26°
1020.9 hPa 41.5 mm 15.6°
1
1%
20:00
22°
1021.6 hPa 41.5 mm 16.6°
1
1%
23:00
19°
1023.3 hPa 41.5 mm 14.9°
1
1%
 06:28     20:47    Daglengte: 14:19 Donderdag 12 Aug
02:00
18°
1023.2 hPa 41.5 mm 15.2°
1
1%
05:00
18°
1022.8 hPa 41.5 mm 15.3°
1
1%
08:00
19°
1023.5 hPa 41.5 mm 16.0°
0
1%
11:00
24°
1023.0 hPa   17.0°
1
0%
14:00
26°
1022.1 hPa 83.1 mm 17.7°
1
0%
20:00
24°
1021.7 hPa 83.8 mm 19.4°
1
0%
 06:29     20:46    Daglengte: 14:17 Vrijdag 13 Aug
02:00
19°
1023.0 hPa 84.0 mm 16.9°
1
0%
08:00
20°
1022.2 hPa 84.2 mm 17.9°
0
1%
14:00
28°
1019.3 hPa 84.2 mm 19.2°
2
1%
20:00
25°
1017.9 hPa 86.1 mm 21.0°
0
1%
 06:30     20:44    Daglengte: 14:14 Zaterdag 14 Aug
02:00
20°
1017.9 hPa 88.1 mm 18.3°
1
1%
08:00
20°
1016.8 hPa 91.3 mm 18.3°
2
0%
14:00
27°
1014.3 hPa 97.7 mm 20.7°
3
1%
20:00
23°
1014.3 hPa 100.5 mm 18.0°
2
0%
 06:32     20:42    Daglengte: 14:10 Zondag 15 Aug
02:00
18°
1015.0 hPa 100.6 mm 15.5°
1
0%
08:00
16°
1017.7 hPa 0.5 mm 14.0°
1
40%
14:00
23°
1015.9 hPa 0.3 mm 15.6°
1
35%
20:00
19°
1016.1 hPa 0.8 mm 16.0°
1
41%
 06:33     20:41    Daglengte: 14:08 Maandag 16 Aug
02:00
14°
1017.5 hPa 0.6 mm 13.1°
1
35%
08:00
15°
1017.4 hPa 0.2 mm 13.6°
1
43%
14:00
22°
1016.7 hPa 0.4 mm 15.7°
1
48%
20:00
19°
1017.5 hPa 0.8 mm 15.9°
1
50%
 06:34     20:39    Daglengte: 14:05 Dinsdag 17 Aug
02:00
15°
1019.1 hPa 0.6 mm 13.4°
1
44%
08:00
15°
1019.5 hPa 0.6 mm 13.9°
1
48%
14:00
23°
1018.4 hPa 0.5 mm 15.8°
1
39%
20:00
19°
1018.6 hPa 0.8 mm 15.8°
1
38%
 06:35     20:37    Daglengte: 14:02 Woensdag 18 Aug
02:00
15°
1019.7 hPa   13.2°
0
33%
08:00
15°
1019.6 hPa 0.6 mm 13.7°
1
39%
14:00
23°
1018.1 hPa 0.6 mm 16.3°
1
45%
20:00
19°
1018.0 hPa 0.8 mm 16.1°
1
42%
 06:37     20:35    Daglengte: 13:58 Donderdag 19 Aug
02:00
15°
1019.1 hPa 0.7 mm 13.4°
1
46%
08:00
15°
1018.7 hPa 0.6 mm 13.6°
1
48%
14:00
22°
1017.0 hPa 0.7 mm 15.6°
1
46%
20:00
19°
1017.1 hPa 0.3 mm 15.8°
1
49%
 06:38     20:34    Daglengte: 13:56 Vrijdag 20 Aug
02:00
14°
1018.2 hPa   12.9°
1
44%
08:00
15°
1018.0 hPa 0.3 mm 13.2°
1
40%
  CAPE Lifted Index Hail Supercell Tornado SRH 3km CL BTM PRES CL TOP PRES Swiss DWD icon SMHI TS
 06:19     20:58    Daglengte: 14:39 Vandaag
13:00 353 J/kg -1.4 K 0 % 0 % 0 % 0 m²/s² 0 0 1.45 80
14:00 262 J/kg -0.8 K 0 % 0 % 0 % 0 m²/s² 0 0 2.86 2
15:00 250 J/kg -0.5 K 0 % 0 % 0 % 0 m²/s² 0 0 2.8 2
16:00 214 J/kg 0.1 K 0 % 0 % 0 % 0 m²/s² 0 0 3.22 0
17:00 193 J/kg -0.2 K 0 % 0 % 0 % 0 m²/s² 0 0 3.01 2
18:00 185 J/kg -0.3 K 0 % 0 % 0 % 0 m²/s² 0 0 2.58 2
19:00 264 J/kg -0.5 K 0 % 0 % 0 % 0 m²/s² 0 0 2.23 1
20:00 149 J/kg 0.0 K 0 % 0 % 0 % 0 m²/s² 0 0 2.67 1
21:00 86 J/kg 0.7 K 0 % 0 % 0 % 0 m²/s² 0 0 2.65 2
22:00 23 J/kg 1.5 K 0 % 0 % 0 % 0 m²/s² 0 0 3.09 3
23:00 0 J/kg 2.2 K 0 % 0 % 0 % 0 m²/s² 0 0 3.4 3
 06:20     20:57    Daglengte: 14:37 Morgen
00:00 0 J/kg 1.1 K 0 % 0 % 0 % 0 m²/s² 0 0 2.3 3
01:00 0 J/kg 0.7 K 0 % 0 % 0 % 0 m²/s² 0 0 0.97 61
02:00 0 J/kg 0.4 K 0 % 0 % 0 % 0 m²/s² 0 0 1.3 3
03:00 0 J/kg -0.1 K 0 % 0 % 0 % 0 m²/s² 0 0 1.55 3
04:00 0 J/kg -0.5 K 0 % 0 % 0 % 0 m²/s² 0 0 -0.41 3
05:00 1 J/kg -0.7 K 0 % 0 % 0 % 0 m²/s² 0 0 0.77 3
06:00 39 J/kg 0.3 K 0 % 0 % 0 % 0 m²/s² 0 0 3.36 3
07:00 68 J/kg 0.8 K 0 % 0 % 0 % 0 m²/s² 0 0 2.39 2
08:00 90 J/kg 1.5 K 0 % 0 % 0 % 0 m²/s² 0 0 4.83 2
09:00 31 J/kg 3.4 K 0 % 0 % 0 % 0 m²/s² 0 0 7.84 1
10:00 37 J/kg 4.1 K 0 % 0 % 0 % 0 m²/s² 0 0 8.78 1
11:00 48 J/kg 3.9 K 0 % 0 % 0 % 0 m²/s² 0 0 8.85 2
12:00 46 J/kg 3.4 K 0 % 0 % 0 % 0 m²/s² 0 0 8.47 1
13:00 56 J/kg 3.1 K 0 % 0 % 0 % 0 m²/s² 0 0 7.93 3
14:00 50 J/kg 2.5 K 0 % 0 % 0 % 0 m²/s² 0 0 7.45 3
15:00 53 J/kg 2.2 K 0 % 0 % 0 % 0 m²/s² 0 0 6.91 3
16:00 54 J/kg 1.6 K 0 % 0 % 0 % 0 m²/s² 0 0 6.43 3
17:00 57 J/kg 1.4 K 0 % 0 % 0 % 0 m²/s² 0 0 6.26 3
18:00 54 J/kg 1.3 K 0 % 0 % 0 % 0 m²/s² 0 0 6.16 3
19:00 52 J/kg 1.4 K 0 % 0 % 0 % 0 m²/s² 0 0 5.9 3
20:00 54 J/kg 1.1 K 0 % 0 % 0 % 0 m²/s² 0 0 5.84 3
21:00 29 J/kg 1.7 K 0 % 0 % 0 % 0 m²/s² 0 0 6.56 3
22:00 1 J/kg 2.3 K 0 % 0 % 0 % 0 m²/s² 0 0 6.44 3
23:00 0 J/kg 2.7 K 0 % 0 % 0 % 0 m²/s² 0 0 5.88 3
 06:21     20:55    Daglengte: 14:34 Zaterdag 07 Aug
00:00 0 J/kg 2.6 K 0 % 0 % 0 % 0 m²/s² 0 0 5.78 2
01:00 0 J/kg 2.3 K 0 % 0 % 0 % 0 m²/s² 0 0 5.66 3
02:00 0 J/kg 2.3 K 0 % 0 % 0 % 0 m²/s² 0 0 5.96 3
03:00 0 J/kg 2.3 K 0 % 0 % 0 % 0 m²/s² 0 0 5.78 3
04:00 0 J/kg 1.9 K 0 % 0 % 0 % 0 m²/s² 0 0 5.47 2
05:00 0 J/kg 1.7 K 0 % 0 % 0 % 0 m²/s² 0 0 5.45 2
06:00 0 J/kg 1.6 K 0 % 0 % 0 % 0 m²/s² 0 0 5.17 3
07:00 0 J/kg 1.7 K 0 % 0 % 0 % 0 m²/s² 0 0 4.49 3
08:00 0 J/kg 1.9 K 0 % 0 % 0 % 0 m²/s² 0 0 3.94 3
09:00 0 J/kg 2.7 K 0 % 0 % 0 % 0 m²/s² 0 0 4.44 3
10:00 0 J/kg 1.9 K 0 % 0 % 0 % 0 m²/s² 0 0 3.28 63
11:00 6 J/kg 1.4 K 0 % 0 % 0 % 0 m²/s² 0 0 2.27 61
12:00 42 J/kg 0.8 K 0 % 0 % 0 % 0 m²/s² 0 0 0.8 61
13:00 81 J/kg 0.4 K 0 % 0 % 0 % 0 m²/s² 0 0 0.4 3
14:00 0 J/kg -0.3 K 0 % 0 % 0 % 0 m²/s² 0 0 -0.09 80
15:00 0 J/kg 2.7 K 0 % 0 % 0 % 0 m²/s² 0 0 2.7 80
16:00 0 J/kg 2.7 K 0 % 0 % 0 % 0 m²/s² 0 0 2.7 3
17:00 7 J/kg 2.8 K 0 % 0 % 0 % 0 m²/s² 0 0 2.8 80
18:00 10 J/kg 2.3 K 0 % 0 % 0 % 0 m²/s² 0 0 2.33 65
19:00 5 J/kg 3.8 K 0 % 0 % 0 % 0 m²/s² 0 0 4.34 65
20:00 32 J/kg 2.8 K 0 % 0 % 0 % 0 m²/s² 0 0 3.4 63
21:00 11 J/kg 2.1 K 0 % 0 % 0 % 0 m²/s² 0 0 3.69 63
22:00 0 J/kg 1.1 K 0 % 0 % 0 % 0 m²/s² 0 0 4.4 63
23:00 0 J/kg 0.5 K 0 % 0 % 0 % 0 m²/s² 0 0 3.71 80
 06:23     20:54    Daglengte: 14:31 Zondag 08 Aug
00:00 0 J/kg -0.2 K 0 % 0 % 0 % 0 m²/s² 0 0 1.84 80
01:00 58 J/kg 0.4 K 0 % 0 % 0 % 0 m²/s² 0 0 2.92 1
02:00 104 J/kg 0.8 K 0 % 0 % 0 % 0 m²/s² 0 0 4.13 0
03:00 95 J/kg 1.1 K 0 % 0 % 0 % 0 m²/s² 0 0 4.7 0
04:00 64 J/kg 1.9 K 0 % 0 % 0 % 0 m²/s² 0 0 5.8 1
05:00 52 J/kg 2.2 K 0 % 0 % 0 % 0 m²/s² 0 0 6.31 1
06:00 67 J/kg 2.3 K 0 % 0 % 0 % 0 m²/s² 0 0 5.99 1
07:00 73 J/kg 2.6 K 0 % 0 % 0 % 0 m²/s² 0 0 6.29 2
08:00 127 J/kg 2.1 K 0 % 0 % 0 % 0 m²/s² 0 0 5.49 1
09:00 0 J/kg 0.0 K 0 % 0 % 0 % 0 m²/s² 0 0 13.83 1
Temp Baro Wind Neerslag
  EWN Forecast EWN WRFDA DWD ICON FMI HIRLAM MET Norway GFS
 06:19     20:58    Daglengte: 14:39 Vandaag
14:00 17.1° 1011.9 hPa 4.5 m/s 3.4 mm 20.6° 1009.7 hPa 5.8 m/s 20.8 mm 16.9° 1011.9 hPa 4.5 m/s 3.1 mm 17.1° 1012.1 hPa 5.7 m/s 0.0 mm 17.5° 1012.1 hPa 4.7 m/s
17:00 17.7° 1011.1 hPa 5.0 m/s 0.0 mm 21.3° 1008.7 hPa 5.9 m/s 31.2 mm 19.0° 1010.3 hPa 6.0 m/s 0.0 mm 16.2° 1011.5 hPa 5.1 m/s 0.0 mm 20.7° 1010.7 hPa 4.6 m/s
20:00 16.9° 1011.0 hPa 3.5 m/s 0.0 mm 19.7° 1008.8 hPa 3.3 m/s 31.2 mm 17.0° 1010.9 hPa 3.6 m/s 0.0 mm 16.8° 1011.4 hPa 4.1 m/s 0.0 mm 18.0° 1011.0 hPa 2.9 m/s
23:00 15.0° 1011.7 hPa 2.4 m/s 0.0 mm 14.3° 1009.5 hPa 3.1 m/s 31.2 mm 15.4° 1012.3 hPa 2.4 m/s -0.0 mm 15.7° 1011.9 hPa 2.7 m/s 0.0 mm 14.4° 1012.0 hPa 2.0 m/s
 06:20     20:57    Daglengte: 14:37 Morgen
02:00 14.7° 1010.0 hPa 1.7 m/s 0.0 mm 15.7° 1008.3 hPa 1.8 m/s 31.3 mm 14.8° 1010.7 hPa 1.7 m/s 0.6 mm 15.6° 1009.8 hPa 1.9 m/s 0.0 mm 15.4° 1010.7 hPa 2.3 m/s
05:00 15.3° 1009.1 hPa 3.2 m/s 0.0 mm 15.4° 1006.7 hPa 2.2 m/s 32.4 mm 15.2° 1009.7 hPa 3.3 m/s 0.0 mm 16.7° 1008.6 hPa 3.4 m/s 0.0 mm 15.1° 1009.9 hPa 3.4 m/s
08:00 15.3° 1010.7 hPa 5.5 m/s 0.0 mm 16.0° 1008.1 hPa 3.9 m/s 33.7 mm 15.4° 1011.0 hPa 5.9 m/s 0.0 mm 16.1° 1010.4 hPa 6.1 m/s 0.0 mm 15.8° 1010.8 hPa 2.7 m/s
11:00 17.6° 1011.2 hPa 5.8 m/s 0.0 mm 18.4° 1008.8 hPa 5.6 m/s 34.2 mm 17.7° 1011.3 hPa 7.1 m/s 0.0 mm 17.8° 1011.4 hPa 6.0 m/s 0.0 mm 19.2° 1011.6 hPa 5.7 m/s
14:00 18.6° 1011.1 hPa 5.4 m/s 0.0 mm 20.4° 1008.4 hPa 5.7 m/s 34.2 mm 19.3° 1011.1 hPa 6.5 m/s 0.0 mm 17.4° 1011.4 hPa 5.7 m/s 0.0 mm 22.1° 1010.6 hPa 5.1 m/s
17:00 19.7° 1010.2 hPa 4.3 m/s 0.0 mm 21.2° 1007.6 hPa 4.2 m/s 34.2 mm 19.6° 1010.5 hPa 5.1 m/s 0.0 mm 20.1° 1010.2 hPa 4.5 m/s 0.0 mm 22.7° 1009.6 hPa 3.4 m/s
20:00 18.1° 1010.1 hPa 2.9 m/s 0.0 mm 20.7° 1007.5 hPa 2.4 m/s 34.2 mm 17.9° 1010.4 hPa 2.1 m/s 0.0 mm 19.0° 1010.4 hPa 3.1 m/s 0.0 mm 19.1° 1009.9 hPa 2.1 m/s
23:00 16.1° 1010.6 hPa 2.2 m/s 0.0 mm 15.2° 1008.4 hPa 3.3 m/s 34.2 mm 16.6° 1010.7 hPa 1.4 m/s 0.0 mm 16.5° 1012.0 hPa 2.2 m/s 0.0 mm 15.6° 1010.9 hPa 1.4 m/s
 06:21     20:55    Daglengte: 14:34 Zaterdag 07 Aug
02:00 14.8° 1010.2 hPa 1.3 m/s 0.0 mm 14.2° 1007.5 hPa 1.1 m/s 34.2 mm 16.1° 1010.3 hPa 0.8 m/s 0.0 mm 14.9° 1011.3 hPa 2.1 m/s 0.0 mm 14.2° 1010.6 hPa 1.0 m/s
05:00 13.7° 1008.6 hPa 1.0 m/s 0.0 mm 13.5° 1006.5 hPa 0.6 m/s 34.2 mm 15.1° 1008.8 hPa 1.0 m/s 0.0 mm 13.3° 1009.2 hPa 1.3 m/s
08:00 14.6° 1007.9 hPa 1.3 m/s 0.0 mm 16.3° 1006.0 hPa 0.7 m/s 34.2 mm 14.7° 1008.0 hPa 1.5 m/s 0.0 mm 15.3° 1007.5 hPa 0.9 m/s
11:00 17.0° 1007.5 hPa 1.5 m/s 11.3 mm 21.0° 1004.8 hPa 2.8 m/s 34.2 mm 14.8° 1007.8 hPa 0.7 m/s 5.6 mm 20.9° 1005.9 hPa 1.5 m/s
14:00 16.8° 1007.0 hPa 1.2 m/s 9.2 mm 17.0° 1004.2 hPa 5.0 m/s 38.3 mm 15.5° 1007.4 hPa 0.7 m/s 2.3 mm 22.4° 1005.7 hPa 2.1 m/s
17:00 15.6° 1006.7 hPa 1.9 m/s 15.2 mm 14.2° 1006.8 hPa 2.8 m/s 65.6 mm 15.6° 1005.9 hPa 1.6 m/s 2.0 mm 18.0° 1007.6 hPa 3.3 m/s
20:00 14.5° 1009.5 hPa 2.4 m/s 41.7 mm 14.8° 1007.5 hPa 3.8 m/s 117.8 mm 14.7° 1009.7 hPa 2.4 m/s 32.4 mm 15.4° 1008.9 hPa 1.9 m/s
23:00 13.8° 1011.4 hPa 3.6 m/s 30.7 mm 13.7° 1008.7 hPa 3.9 m/s 125.1 mm 14.3° 1012.1 hPa 4.5 m/s 8.4 mm 15.0° 1011.9 hPa 1.4 m/s
 06:23     20:54    Daglengte: 14:31 Zondag 08 Aug
02:00 14.0° 1011.4 hPa 3.0 m/s 22.8 mm 14.9° 1009.6 hPa 3.6 m/s 125.3 mm 14.0° 1012.4 hPa 3.3 m/s 0.7 mm 15.0° 1013.0 hPa 3.6 m/s
05:00 13.2° 1012.1 hPa 3.1 m/s 0.0 mm 11.1° 1010.1 hPa 3.0 m/s 125.4 mm 13.7° 1012.7 hPa 3.2 m/s 0.0 mm 13.7° 1013.2 hPa 2.4 m/s
08:00 13.9° 1013.9 hPa 3.1 m/s 0.0 mm 14.2° 1011.7 hPa 3.9 m/s 125.6 mm 13.9° 1014.5 hPa 2.9 m/s 0.0 mm 14.3° 1013.9 hPa 2.1 m/s
11:00 15.9° 1015.3 hPa 4.8 m/s 0.0 mm 15.8° 1015.3 hPa 5.0 m/s 0.0 mm 16.8° 1015.3 hPa 3.6 m/s 41.3 mm
14:00 18.2° 1015.6 hPa 5.6 m/s 0.0 mm 18.1° 1015.5 hPa 5.8 m/s 0.0 mm 18.7° 1016.0 hPa 4.8 m/s 41.4 mm
17:00 19.8° 1017.2 hPa 5.3 m/s 41.4 mm 19.8° 1017.2 hPa 5.3 m/s 41.4 mm
20:00 17.0° 1018.9 hPa 1.8 m/s 41.5 mm 17.0° 1018.9 hPa 1.8 m/s 41.5 mm
23:00 13.0° 1021.4 hPa 1.5 m/s 41.5 mm 13.0° 1021.4 hPa 1.5 m/s 41.5 mm
 06:24     20:52    Daglengte: 14:28 Maandag 09 Aug
02:00 11.9° 1021.8 hPa 0.7 m/s 41.5 mm 11.9° 1021.8 hPa 0.7 m/s 41.5 mm
05:00 12.1° 1021.4 hPa 0.6 m/s 41.5 mm 12.1° 1021.4 hPa 0.6 m/s 41.5 mm
08:00 14.0° 1021.8 hPa 0.4 m/s 41.5 mm 14.0° 1021.8 hPa 0.4 m/s 41.5 mm
11:00 18.7° 1022.2 hPa 0.9 m/s 41.5 mm 18.7° 1022.2 hPa 0.9 m/s 41.5 mm
14:00 20.8° 1022.2 hPa 1.4 m/s 41.5 mm 20.8° 1022.2 hPa 1.4 m/s 41.5 mm
17:00 22.0° 1021.9 hPa 1.4 m/s 41.5 mm 22.0° 1021.9 hPa 1.4 m/s 41.5 mm
20:00 18.4° 1023.1 hPa 1.7 m/s 41.5 mm 18.4° 1023.1 hPa 1.7 m/s 41.5 mm
23:00 14.2° 1024.9 hPa 1.5 m/s 41.5 mm 14.2° 1024.9 hPa 1.5 m/s 41.5 mm
 06:25     20:51    Daglengte: 14:26 Dinsdag 10 Aug
02:00 13.0° 1025.4 hPa 1.1 m/s 41.5 mm 13.0° 1025.4 hPa 1.1 m/s 41.5 mm
05:00 12.2° 1024.9 hPa 0.9 m/s 41.5 mm 12.2° 1024.9 hPa 0.9 m/s 41.5 mm
08:00 14.2° 1025.2 hPa 0.8 m/s 41.5 mm 14.2° 1025.2 hPa 0.8 m/s 41.5 mm
11:00 19.6° 1024.0 hPa 1.2 m/s 41.5 mm 19.6° 1024.0 hPa 1.2 m/s 41.5 mm
14:00 22.7° 1022.4 hPa 1.6 m/s 41.5 mm 22.7° 1022.4 hPa 1.6 m/s 41.5 mm
17:00 23.3° 1021.4 hPa 1.2 m/s 41.5 mm 23.3° 1021.4 hPa 1.2 m/s 41.5 mm
20:00 20.0° 1021.3 hPa 1.2 m/s 41.5 mm 20.0° 1021.3 hPa 1.2 m/s 41.5 mm
23:00 16.1° 1022.6 hPa 1.6 m/s 41.5 mm 16.1° 1022.6 hPa 1.6 m/s 41.5 mm
 06:26     20:49    Daglengte: 14:23 Woensdag 11 Aug
02:00 14.7° 1022.5 hPa 1.0 m/s 41.5 mm 14.7° 1022.5 hPa 1.0 m/s 41.5 mm
05:00 13.6° 1022.3 hPa 0.1 m/s 41.5 mm 13.6° 1022.3 hPa 0.1 m/s 41.5 mm
08:00 15.5° 1022.5 hPa 0.2 m/s 41.5 mm 15.5° 1022.5 hPa 0.2 m/s 41.5 mm
11:00 21.1° 1022.0 hPa 1.4 m/s 41.5 mm 21.1° 1022.0 hPa 1.4 m/s 41.5 mm
14:00 24.6° 1021.6 hPa 1.8 m/s 41.5 mm 24.6° 1021.6 hPa 1.8 m/s 41.5 mm
17:00 25.5° 1020.9 hPa 1.2 m/s 41.5 mm 25.5° 1020.9 hPa 1.2 m/s 41.5 mm
20:00 22.0° 1021.6 hPa 1.0 m/s 41.5 mm 22.0° 1021.6 hPa 1.0 m/s 41.5 mm
23:00 18.6° 1023.3 hPa 1.1 m/s 41.5 mm 18.6° 1023.3 hPa 1.1 m/s 41.5 mm
 06:28     20:47    Daglengte: 14:19 Donderdag 12 Aug
02:00 18.3° 1023.2 hPa 0.8 m/s 41.5 mm 18.3° 1023.2 hPa 0.8 m/s 41.5 mm
05:00 17.5° 1022.8 hPa 0.6 m/s 41.5 mm 17.5° 1022.8 hPa 0.6 m/s 41.5 mm
08:00 18.5° 1023.5 hPa 0.4 m/s 41.5 mm 18.5° 1023.5 hPa 0.4 m/s 41.5 mm
11:00 23.8° 1023.0 hPa 1.2 m/s 41.5 mm 23.8° 1023.0 hPa 1.2 m/s 41.5 mm
14:00 26.5° 1022.1 hPa 1.2 m/s 41.5 mm 26.5° 1022.1 hPa 1.2 m/s 41.5 mm
20:00 23.8° 1021.7 hPa 0.8 m/s 42.0 mm 23.8° 1021.7 hPa 0.7 m/s 42.0 mm
 06:29     20:46    Daglengte: 14:17 Vrijdag 13 Aug
02:00 19.3° 1023.0 hPa 0.6 m/s 42.0 mm 19.3° 1023.0 hPa 0.6 m/s 42.0 mm
08:00 19.6° 1022.2 hPa 0.2 m/s 42.1 mm 19.6° 1022.2 hPa 0.2 m/s 42.1 mm
14:00 27.6° 1019.3 hPa 1.5 m/s 42.1 mm 27.6° 1019.3 hPa 1.5 m/s 42.1 mm
20:00 24.6° 1017.9 hPa 0.2 m/s 43.7 mm 24.6° 1017.9 hPa 0.2 m/s 43.7 mm
 06:30     20:44    Daglengte: 14:14 Zaterdag 14 Aug
02:00 20.4° 1017.9 hPa 1.1 m/s 44.2 mm 20.4° 1017.9 hPa 1.1 m/s 44.2 mm
08:00 19.8° 1016.8 hPa 2.2 m/s 47.0 mm 19.8° 1016.8 hPa 2.2 m/s 47.0 mm
14:00 27.5° 1014.3 hPa 3.4 m/s 49.2 mm 27.5° 1014.3 hPa 3.4 m/s 49.2 mm
20:00 22.6° 1014.3 hPa 2.5 m/s 50.3 mm 22.6° 1014.3 hPa 2.5 m/s 50.3 mm
 06:32     20:42    Daglengte: 14:10 Zondag 15 Aug
02:00 18.0° 1015.0 hPa 1.1 m/s 50.3 mm 18.0° 1015.0 hPa 1.1 m/s 50.3 mm
08:00 15.5° 1017.7 hPa 0.6 m/s 0.5 mm
14:00 22.9° 1015.9 hPa 1.4 m/s 0.3 mm
20:00 19.0° 1016.1 hPa 1.4 m/s 0.8 mm
 06:33     20:41    Daglengte: 14:08 Maandag 16 Aug
02:00 14.4° 1017.5 hPa 0.6 m/s 0.6 mm
08:00 15.1° 1017.4 hPa 1.0 m/s 0.2 mm
14:00 22.3° 1016.7 hPa 1.4 m/s 0.4 mm
20:00 18.8° 1017.5 hPa 1.1 m/s 0.8 mm
 06:34     20:39    Daglengte: 14:05 Dinsdag 17 Aug
02:00 14.5° 1019.1 hPa 0.5 m/s 0.6 mm
08:00 15.0° 1019.5 hPa 0.5 m/s 0.6 mm
14:00 22.6° 1018.4 hPa 1.0 m/s 0.5 mm
20:00 19.1° 1018.6 hPa 0.9 m/s 0.8 mm
 06:35     20:37    Daglengte: 14:02 Woensdag 18 Aug
02:00 14.6° 1019.7 hPa 0.4 m/s 0.0 mm
08:00 15.1° 1019.6 hPa 0.6 m/s 0.6 mm
14:00 22.6° 1018.1 hPa 1.0 m/s 0.6 mm
20:00 19.2° 1018.0 hPa 0.9 m/s 0.8 mm
 06:37     20:35    Daglengte: 13:58 Donderdag 19 Aug
02:00 14.7° 1019.1 hPa 0.5 m/s 0.7 mm
08:00 15.0° 1018.7 hPa 0.7 m/s 0.6 mm
14:00 22.4° 1017.0 hPa 1.0 m/s 0.7 mm
20:00 18.8° 1017.1 hPa 0.9 m/s 0.3 mm
 06:38     20:34    Daglengte: 13:56 Vrijdag 20 Aug
02:00 14.3° 1018.2 hPa 0.8 m/s 0.0 mm
08:00 14.7° 1018.0 hPa 0.7 m/s 0.3 mm
FMI Hirlam - 7.5 km EWN WRFDA - 12 km DWD ICON - 7 km GFS - 25 km Basiskaart






























































Updatetijd (Europe/Brussels) Resolutie Lengte Stap
FMI Hirlam 07:00, 13:00, 19:00, 01:00 7.5 km 49h 1h
EWN WRFDA 04:15, 10:15, 16:15, 22:15 12 km 73h 1h
DWD ICON 11:45, 17:45, 23:45, 05:45 7 km 75h 1h
GFS 08:30, 14:30, 20:30, 02:30 25 km 237h 3h
30+ mm
25-30 mm
20-25 mm
15-20 mm
10-15 mm
6-10 mm
4-6 mm
2-4 mm
1-2 mm
0.5-1 mm
0.2-0.5 mm
0.1-0.2 mm
30+ mm
25-30 mm
20-25 mm
15-20 mm
10-15 mm
6-10 mm
4-6 mm
2-4 mm
1-2 mm
0.5-1 mm
0.2-0.5 mm
0.1-0.2 mm
Sneeuwval
Natte sneeuw
Hagel
Vorst
30+ mm
25-30 mm
20-25 mm
15-20 mm
10-15 mm
6-10 mm
4-6 mm
2-4 mm
1-2 mm
0.5-1 mm
0.2-0.5 mm
0.1-0.2 mm
Sneeuwval
Natte sneeuw
Hagel
Vorst
Onweer
50 mm
40 mm
30 mm
26 mm
22 mm
18 mm
14 mm
10 mm
9 mm
8 mm
7 mm
6 mm
5 mm
4.5 mm
4 mm
3.5 mm
3 mm
2.5 mm
2 mm
1.5 mm
1 mm
0.8 mm
0.6 mm
0.4 mm
0.2 mm
0.05 mm
35°
30°
25°
20°
15°
10°
-5°
-10°
-15°
-20°
-25°
-30°
-35°
33> m/s
29 m/s
25 m/s
21 m/s
17 m/s
14 m/s
11 m/s
8 m/s
5 m/s
3 m/s
0 m/s
2600 J/kg
2400 J/kg
2200 J/kg
2000 J/kg
1800 J/kg
1600 J/kg
1400 J/kg
1200 J/kg
1000 J/kg
800 J/kg
600 J/kg
400 J/kg
200 J/kg
70 dBZ
65 dBZ
60 dBZ
55 dBZ
50 dBZ
45 dBZ
40 dBZ
35 dBZ
30 dBZ
25 dBZ
20 dBZ
15 dBZ
10 dBZ
5 dBZ
-1 K
-2 K
-3 K
-4 K
-5 K
-6 K
-7 K
-8 K
-9 K
950 m²/s²
900 m²/s²
850 m²/s²
800 m²/s²
750 m²/s²
700 m²/s²
650 m²/s²
600 m²/s²
550 m²/s²
500 m²/s²
450 m²/s²
400 m²/s²
350 m²/s²
300 m²/s²
250 m²/s²
200 m²/s²
150 m²/s²
100 m²/s²
46 m/s
44 m/s
42 m/s
40 m/s
38 m/s
36 m/s
34 m/s
32 m/s
30 m/s
28 m/s
26 m/s
24 m/s
22 m/s
20 m/s
16 m/s
12 m/s
8 m/s
4 m/s
30 m/s
28 m/s
26 m/s
24 m/s
22 m/s
20 m/s
18 m/s
16 m/s
14 m/s
12 m/s
10 m/s
8 m/s
6 m/s
4 m/s
2 m/s
3.0
2.8
2.6
2.4
2.2
2.0
1.8
1.6
1.4
1.2
1.0
0.8
0.6
0.4
0.2
15
14
13
12
11
10
9
8
7
6
5
4
3
2
1
90%
80%
70%
60%
50%
40%
30%
20%
10%
42
40
38
36
34
32
30
28
26
24
22
20
18
16
14
12
90+ cm
80-90 cm
70-80 cm
60-70 cm
50-60 cm
40-50 cm
30-40 cm
20-30 cm
10-20 cm
1-10 cm
Sneeuwval
Natte sneeuw
Regen
>120 mm
115 mm
110 mm
105 mm
100 mm
95 mm
90 mm
85 mm
80 mm
75 mm
70 mm
65 mm
60 mm
55 mm
50 mm
45 mm
45 mm
40 mm
35 mm
30 mm
25 mm
20 mm
15 mm
10 mm
5 mm
0.1 mm
960 hPa
880 hPa
800 hPa
720 hPa
640 hPa
560 hPa
584 gpdm
568 gpdm
552 gpdm
536 gpdm
520 gpdm
504 gpdm
488 gpdm
Extreem zwaar Noodweer Kans op onweer
15% 15% 5% 50% 15%

Dag




Kaart






35°
30°
25°
20°
15°
10°
-5°
-10°
-15°
-20°
-25°
-30°
-35°
33> m/s
29 m/s
25 m/s
21 m/s
17 m/s
14 m/s
11 m/s
8 m/s
5 m/s
3 m/s
0 m/s
Extreem zwaar Noodweer Kans op onweer
15% 15% 5% 50% 15%
<